Find Starlink 4430

NORAD ID: 53485 Int'l Des: 2022-099 Owner: SPXS Country: US Constellation: starlink operational
LEOCIRCULARRETROGRADESSO

現在のビュー

3D地球を読み込み中...

About Starlink 4430

Starlink 4430 (NORAD 53485) is a starlink constellation satellite (v1.5) launched Aug 12, 2022 by SPXS of US. It operates in LEO, CIRCULAR, RETROGRADE, SSO orbit with a mass of 300.00 kg.

次回通過

Passes for default location (London). Set your location on the main map for personalized predictions.

高度履歴

Loading altitude history...

軌道要素

1 53485U 22099W 26227.89952097 -.00000361 00000-0 -21097-4 0 9990
2 53485 97.2873 343.6731 0001659 112.7038 247.4365 15.05680748219932
Epoch: Aug 15, 2026 • Age: 13 hours

現在のステータス

高度 557.6 km
遠地点 / 近地点 N/A
速度 7.59 km/s
衛星直下点 53.66°N, 149.42°W
打ち上げ日 Aug 12, 2022
運用期間 4 years
タイプ internet

技術仕様

分類 Payload
質量 300.00 kg
乾燥質量 275.00 kg
総質量 300.00 kg
長さ 0.20 m
直径 2.80 m
スパン 9.00 m
形状 Box + pan
製造者 SPXS
バスタイプ Starlink
フェーズステータス In Orbit
所有者/国 SPXS/US

Most Searched